RH
39 40 40 42 44 46 48 50 52 53 54 55 55 55 55 56 57 58 59 60 61 62 63 64 66 67 68 69 69 70 70 70 70 70 72 73 74 74 74 74 72 71
40 41 41 42 44 46 49 51 53 54 55 57 57 58 58 58 59 60 61 62 63 65 66 67 68 69 70 71 72 72 72 72 72 74 77 80 79 79 79 78 76 72
40 41 42 43 44 46 49 51 53 55 56 58 59 60 60 60 61 62 63 65 66 68 69 70 71 72 73 74 75 75 74 74 74 75 78 80 81 82 81 80 80 78
40 41 43 44 45 46 48 51 52 54 56 58 60 62 63 63 64 64 65 67 69 71 73 74 75 76 77 78 79 79 77 77 78 80 82 80 81 83 82 81 83 82
40 41 43 44 46 46 48 50 51 53 55 57 60 63 65 65 65 65 66 68 70 72 74 77 79 80 81 82 82 81 79 79 81 85 88 85 85 86 86 85 85 84
42 41 42 44 46 47 48 49 51 52 53 55 58 61 65 67 67 67 68 69 71 73 74 77 81 83 84 85 86 84 81 80 82 89 93 92 91 92 93 93 91 88
44 43 43 44 46 48 49 50 51 53 53 55 57 59 62 66 67 69 70 71 71 72 73 75 80 84 86 87 88 86 84 83 86 93 97 97 98 98 98 99 98 95
45 45 45 46 47 49 50 51 52 53 54 55 56 57 61 63 65 68 70 71 71 71 72 74 78 84 88 90 89 86 84 85 90 95 98 99 100 100 100 101 101 101
45 47 47 48 48 49 50 52 53 54 55 56 55 57 59 61 64 66 68 69 70 70 71 73 77 84 90 92 91 88 86 86 91 95 99 101 101 100 100 101 101 100
46 47 49 50 50 51 52 53 54 55 56 57 57 57 59 61 63 65 67 68 69 70 72 74 77 83 90 91 91 91 88 86 89 94 99 101 101 100 100 101 102 100
48 47 48 51 52 53 55 56 57 58 59 59 59 58 59 60 62 64 66 68 69 70 73 76 79 84 91 93 92 92 90 88 91 96 99 101 100 99 100 100 101 100
49 48 48 50 53 55 57 59 60 62 63 63 62 61 60 60 61 63 65 66 68 71 74 78 81 87 93 94 92 92 92 92 94 95 97 100 100 99 99 100 99 99
51 50 50 50 53 55 57 59 63 65 66 66 65 64 64 63 64 65 66 67 68 70 75 79 82 88 93 94 93 93 93 94 96 97 98 100 100 99 99 100 99 99
51 53 53 52 54 55 57 59 62 66 68 69 69 69 68 68 69 69 69 68 68 70 74 80 84 87 89 91 93 94 95 96 98 100 100 99 100 100 100 101 100 100
53 55 55 55 55 55 56 59 62 66 69 70 71 71 71 73 73 73 72 70 69 71 74 80 83 84 87 90 92 95 97 99 99 99 100 100 99 98 97 99 99 98
55 57 56 56 57 56 58 60 63 67 69 70 72 72 72 75 75 76 75 72 71 71 74 81 83 83 87 90 93 96 98 98 96 95 95 97 96 93 88 91 96 95
56 58 59 58 59 59 60 62 65 68 69 71 72 73 74 76 76 76 76 75 74 73 74 81 84 85 89 93 96 99 100 99 95 91 91 92 95 93 87 85 92 97
58 60 61 61 62 63 63 65 67 68 70 71 72 74 76 76 76 77 77 77 77 75 76 80 84 89 93 95 97 99 100 100 98 96 95 94 95 96 92 86 87 92
60 61 62 62 64 65 66 67 68 69 70 72 73 75 77 77 77 78 78 79 79 79 80 81 85 91 95 96 99 99 100 101 99 99 100 98 98 99 98 96 93 90
61 64 64 64 65 66 68 68 69 70 71 73 75 76 78 79 79 80 80 81 82 84 84 84 87 93 96 98 100 100 100 100 99 98 99 99 100 100 99 100 99 97
61 64 64 65 67 68 70 70 71 72 73 75 76 77 79 80 80 82 82 82 87 91 89 86 89 95 98 100 101 100 99 100 99 99 100 100 99 99 100 100 99 101
61 63 65 68 70 72 73 73 74 76 76 78 79 78 80 82 82 83 84 85 90 95 94 89 90 96 101 100 100 100 99 100 100 100 100 100 99 100 101 100 100 100
61 64 66 69 72 74 75 75 76 78 79 80 81 81 82 84 85 85 86 88 92 96 97 94 92 97 101 100 99 100 99 100 100 99 100 100 100 101 100 99 100 100
61 65 67 70 73 74 75 77 78 79 81 82 83 83 84 87 87 86 87 91 94 97 100 98 94 98 101 100 99 101 99 100 100 99 100 100 98 99 100 99 100 100
57 63 66 70 73 73 75 78 79 80 82 83 84 85 87 88 88 87 88 94 98 99 101 101 98 99 101 100 100 100 99 100 100 100 100 99 98 99 98 95 97 99
56 61 66 69 71 73 75 77 79 81 84 85 85 87 88 89 89 89 90 95 100 101 102 101 99 99 101 101 100 101 100 100 100 100 100 99 99 101 95 86 84 90
Wind_Speed
21 20 21 20 20 19 18 18 17 16 16 16 15 15 15 15 15 15 16 16 17 17 17 18 18 19 20 20 21 21 22 22 23 23 22 22 23 23 23 23 24 25
22 22 22 22 21 21 20 20 19 18 18 17 17 17 16 16 16 16 16 16 16 16 16 17 17 18 19 20 20 21 22 22 22 22 23 23 23 24 25 25 24 25
24 23 23 23 23 22 22 21 21 21 20 19 18 18 18 17 17 17 16 16 16 16 16 16 17 18 19 19 20 21 22 22 22 22 22 23 24 24 25 25 25 25
25 25 24 24 24 24 24 23 23 23 22 21 20 20 19 19 19 18 18 17 17 17 17 17 18 18 19 19 20 21 21 22 21 21 22 23 23 23 24 24 25 25
25 26 26 25 26 26 26 25 25 24 24 23 23 22 22 22 21 21 20 20 19 19 19 19 19 19 19 20 20 21 21 21 21 20 21 21 21 22 22 23 25 25
25 27 27 27 27 27 27 27 26 26 26 25 25 24 24 24 24 24 23 23 22 22 22 21 20 19 19 20 20 21 20 20 21 20 20 21 21 21 22 22 24 24
26 26 27 28 28 28 28 27 27 27 27 26 26 26 26 26 26 26 25 25 25 25 24 23 21 20 20 20 21 21 21 20 21 20 20 20 21 22 22 23 24 25
26 26 27 28 28 29 29 28 28 28 27 28 28 28 28 28 28 28 27 27 26 26 26 24 23 21 21 21 21 21 21 20 20 20 20 20 20 22 23 23 25 26
27 27 27 28 28 29 29 29 29 28 28 28 29 29 29 29 29 29 29 28 28 27 27 25 24 23 22 22 22 21 21 20 20 20 20 20 20 21 21 22 24 26
27 27 27 28 28 29 29 29 29 29 28 29 29 29 29 30 30 30 30 29 28 28 27 26 25 23 23 23 22 21 21 20 19 19 19 19 19 19 19 20 22 24
26 27 28 28 29 29 29 29 29 29 29 29 29 29 30 30 30 30 30 29 29 28 28 27 25 24 23 23 21 20 20 20 19 19 19 19 18 18 18 18 20 21
26 27 28 29 29 29 29 29 29 29 29 29 29 30 30 30 30 30 30 29 29 28 28 27 25 24 23 22 20 19 20 20 19 19 19 19 19 18 17 17 17 18
26 26 27 29 29 29 29 29 28 28 28 28 29 29 30 30 30 30 30 30 29 29 28 26 25 24 23 21 20 19 19 19 19 20 20 20 19 19 17 15 15 15
25 25 26 28 29 29 29 29 29 28 28 28 28 29 30 29 29 30 30 29 29 29 28 26 25 25 23 20 20 19 19 19 19 20 21 21 21 20 17 15 15 15
24 25 26 27 29 29 29 29 29 28 28 28 28 28 29 29 29 29 30 29 29 29 28 26 26 24 21 19 19 19 19 19 20 20 21 21 20 19 18 16 17 17
24 25 26 27 28 29 29 29 29 29 29 29 28 28 28 28 28 29 29 29 28 28 28 27 26 23 20 19 19 19 18 19 20 20 20 20 19 18 17 17 19 20
24 24 25 26 27 28 28 29 29 29 29 29 28 28 27 28 28 28 28 28 28 28 27 27 25 21 19 19 18 17 17 17 18 18 18 17 17 19 19 18 20 22
24 24 25 25 26 27 28 29 29 29 29 28 28 27 27 28 28 28 27 27 27 27 27 27 24 20 19 19 17 16 15 16 18 19 19 18 19 20 22 22 23 23
23 24 24 25 26 26 27 28 29 29 28 28 27 27 27 27 27 27 26 26 26 25 26 26 23 19 18 18 16 15 15 15 17 19 20 22 23 25 26 27 27 27
24 24 24 25 25 26 27 28 28 28 28 28 28 27 27 27 26 26 25 25 24 24 24 25 23 19 17 17 16 16 15 15 17 19 20 22 25 27 29 30 29 29
24 24 24 25 25 25 27 28 28 28 28 28 27 27 27 26 25 25 24 23 22 23 24 24 22 18 17 17 16 16 15 15 15 16 18 20 20 21 22 24 25 26
24 24 25 24 24 25 26 27 27 27 27 27 27 27 26 25 24 24 23 22 21 22 23 23 21 18 18 17 16 16 15 12 10 14 16 16 13 12 14 16 17 18
24 24 24 24 23 24 24 25 26 26 26 26 26 26 25 24 23 23 22 21 21 21 22 22 20 18 18 18 17 16 13 8 12 15 15 14 12 10 10 9 8 10
24 24 24 23 23 23 23 24 24 24 24 24 24 24 23 22 22 22 21 20 20 19 20 21 20 18 17 18 18 16 10 8 12 14 15 15 15 14 12 8 5 6
24 24 23 22 22 22 22 23 23 23 23 23 23 23 22 22 21 21 20 19 18 18 19 19 19 18 18 19 18 15 10 9 11 12 14 16 16 16 16 15 12 12
23 23 22 22 22 21 21 22 22 22 22 22 22 22 22 21 20 20 20 18 17 18 18 18 18 18 18 19 18 14 13 12 11 12 15 16 15 16 20 22 19 16
Wind_Direction
274 272 272 272 273 275 275 275 275 274 274 274 275 275 274 273 273 271 271 271 272 273 275 278 281 283 285 286 287 286 286 285 284 282 278 275 274 272 270 268 265 262
271 268 268 268 269 271 272 273 273 272 272 272 272 272 272 271 270 270 270 270 272 274 276 278 280 283 284 286 286 285 285 283 281 281 277 274 272 270 268 268 267 265
270 266 264 265 266 266 267 268 270 271 271 270 270 270 270 269 268 267 267 270 273 276 279 280 281 283 283 285 285 284 284 284 282 280 277 274 272 270 268 267 266 265
269 265 263 262 263 263 264 264 265 267 268 268 268 268 267 267 266 266 267 269 273 276 279 281 282 283 284 284 284 283 283 283 282 280 275 274 272 270 269 267 265 264
267 264 262 262 262 262 262 263 263 264 266 266 267 267 266 266 265 266 268 270 273 276 278 281 283 284 284 284 284 283 283 282 282 280 276 274 272 269 268 267 266 264
266 263 263 262 262 262 262 262 263 264 265 265 266 266 265 265 265 266 269 271 273 276 277 280 282 284 285 285 285 283 283 285 285 284 280 277 274 270 268 267 266 265
267 264 262 262 263 263 262 263 264 265 266 266 265 265 265 264 265 266 268 270 272 274 277 279 280 282 284 284 284 283 282 284 286 286 283 280 276 272 268 266 265 264
268 265 263 262 263 263 263 263 264 265 266 267 266 265 264 264 265 266 267 269 270 272 275 277 278 279 281 282 282 282 281 283 286 286 284 281 278 273 269 265 263 263
267 266 263 262 262 263 264 264 264 265 265 266 266 265 265 265 266 266 267 268 269 271 273 275 277 276 277 280 281 280 279 281 283 284 282 281 279 277 274 269 265 263
265 264 264 263 263 263 264 264 265 265 265 264 265 265 265 265 266 266 267 268 269 270 272 273 274 274 275 278 279 276 275 277 282 284 283 282 281 279 277 273 269 267
264 263 263 264 264 264 265 265 266 266 266 264 264 264 264 264 265 266 267 269 269 270 271 271 272 273 274 276 277 274 273 274 278 282 283 284 283 281 279 275 273 271
266 263 262 263 264 264 265 265 266 267 266 265 264 263 263 263 264 265 266 267 268 268 269 270 271 270 271 275 276 273 272 273 275 279 283 285 284 282 281 279 276 276
270 265 262 261 262 263 264 265 266 266 266 266 265 264 264 264 264 265 266 266 266 267 268 269 269 268 269 273 275 273 271 271 275 280 284 285 282 280 280 280 280 282
273 267 263 261 262 263 264 265 265 266 266 266 266 265 265 265 265 266 265 265 264 265 266 267 267 267 267 270 272 271 269 268 273 278 281 281 280 277 277 279 281 283
275 269 264 263 263 263 263 264 265 265 265 265 265 265 265 266 266 267 266 265 264 264 265 265 265 266 267 268 269 268 265 265 270 274 275 275 276 275 274 277 282 284
276 271 268 266 265 265 265 265 265 265 265 266 266 266 267 267 268 267 267 266 265 265 264 263 264 266 266 265 265 265 264 265 267 268 270 273 276 278 278 279 284 287
277 274 272 269 268 267 266 266 265 265 266 266 267 267 268 268 268 268 268 267 265 264 264 263 263 263 264 262 259 258 260 265 268 269 272 278 284 287 289 289 290 290
279 277 274 272 270 269 268 267 266 266 267 267 268 269 268 268 269 269 268 267 265 262 262 263 263 261 258 256 252 248 250 258 266 271 275 280 283 287 290 291 291 290
278 277 276 275 273 271 270 269 268 267 268 269 269 269 269 268 269 269 268 266 264 261 260 260 260 257 252 249 244 240 240 247 258 265 270 276 281 284 286 287 286 285
278 277 278 277 276 275 272 270 270 270 270 271 271 270 270 269 269 269 268 265 262 259 257 257 256 252 245 240 235 234 236 240 249 260 270 281 288 292 291 287 283 279
277 277 278 278 277 275 274 273 272 271 271 271 271 271 270 270 270 269 267 263 259 256 254 254 252 246 236 230 228 230 233 235 249 273 289 294 298 299 291 282 278 275
274 275 275 276 275 274 274 274 273 272 271 271 270 270 270 270 270 269 266 261 255 253 252 251 248 239 228 224 225 225 224 237 279 301 296 290 296 297 285 280 279 276
270 271 272 274 275 275 275 275 274 273 272 271 270 269 269 270 270 267 264 259 254 250 250 249 244 232 223 223 222 216 217 261 307 299 278 270 277 277 271 279 287 282
265 267 271 274 275 277 278 278 276 274 272 271 270 269 269 268 267 264 261 258 254 249 246 245 239 226 221 224 218 210 221 281 300 287 270 266 269 265 256 253 257 263
263 265 268 271 274 277 279 279 278 276 273 272 270 269 269 266 264 262 258 255 253 246 240 240 236 225 222 225 218 212 233 272 287 283 271 263 266 273 271 263 253 245
261 263 265 269 272 276 278 278 278 277 274 271 269 267 267 265 262 260 256 252 247 241 236 235 234 227 226 227 223 225 243 254 262 271 268 261 264 272 276 275 272 265